DW2589 Weather Reports


Display with metric or nautical units.
time (UTC)temp
F
wind
direction
speed
MPH
gust
MPH
rain 1hr
in
rain 24hr
in
rain mn
in
humidity
%
barometer
mb
20240723181905 72 104 1.0 4.0 0.00 0.05 0.05 85 1018.2
20240723181403 73 7 2.0 5.0 0.00 0.05 0.05 84 1018.1
20240723180904 73 105 2.0 5.0 0.00 0.05 0.05 84 1018.0
20240723180401 73 136 2.0 7.0 0.00 0.05 0.05 84 1017.9
20240723175901 73 122 2.0 7.0 0.00 0.05 0.05 84 1018.0
20240723175357 73 109 2.0 6.0 0.00 0.05 0.05 84 1018.0
20240723174858 73 91 1.0 6.0 0.00 0.05 0.05 84 1018.0
20240723174403 73 114 1.0 4.0 0.00 0.05 0.05 85 1018.0
20240723173909 73 96 1.0 4.0 0.00 0.05 0.05 86 1017.9
20240723173347 72 89 2.0 5.0 0.00 0.05 0.05 87 1017.9
20240723173140 72 109 2.0 6.0 0.00 0.05 0.05 85 1017.9
20240723172345 73 120 1.0 6.0 0.00 0.05 0.05 84 1017.9
20240723171843 73 103 1.0 4.0 0.00 0.05 0.05 85 1017.8
20240723171342 73 113 1.0 3.0 0.00 0.05 0.05 86 1017.8
20240723170841 72 124 1.0 3.0 0.00 0.05 0.05 85 1017.7
20240723170453 72 132 0.0 2.0 0.00 0.05 0.05 85 1017.8
20240723164836 71 98 1.0 6.0 0.00 0.05 0.05 87 1017.8
20240723164334 71 96 2.0 6.0 0.00 0.05 0.05 87 1017.7
20240723163837 71 82 1.0 6.0 0.00 0.05 0.05 88 1017.9
20240723163335 71 130 0.0 4.0 0.00 0.05 0.05 89 1018.0
20240723163128 71 243 0.0 2.0 0.00 0.05 0.05 90 1018.0
20240723162335 71 132 0.0 2.0 0.00 0.05 0.05 92 1018.0
20240723162118 70 121 0.0 3.0 0.00 0.05 0.05 91 1018.1
20240723161332 70 103 1.0 5.0 0.00 0.05 0.05 91 1018.0
20240723160833 70 107 1.0 5.0 0.00 0.05 0.05 90 1018.1
20240723160329 70 124 1.0 4.0 0.00 0.05 0.05 91 1017.9
20240723155829 70 96 1.0 4.0 0.00 0.05 0.05 90 1017.7
20240723155329 70 116 1.0 5.0 0.00 0.05 0.05 90 1017.5
20240723154833 70 109 2.0 5.0 0.00 0.05 0.05 91 1017.6
20240723154327 70 122 1.0 4.0 0.00 0.05 0.05 90 1017.5
20240723154115 70 124 1.0 3.0 0.00 0.05 0.05 91 1017.7
20240723153328 70 124 1.0 3.0 0.00 0.05 0.05 91 1017.5
20240723152829 70 94 1.0 3.0 0.00 0.05 0.05 91 1017.7
20240723152613 69 111 1.0 3.0 0.00 0.05 0.05 92 1017.7
20240723151840 69 105 1.0 4.0 0.00 0.05 0.05 93 1017.8
20240723151325 69 130 1.0 4.0 0.00 0.05 0.05 93 1017.7
20240723150825 69 105 1.0 2.0 0.00 0.05 0.05 93 1017.6
20240723150616 70 102 1.0 2.0 0.00 0.05 0.05 94 1017.5
20240723145822 69 105 1.0 3.0 0.00 0.05 0.05 94 1017.6
20240723145321 69 94 1.0 3.0 0.00 0.05 0.05 93 1017.6
20240723144821 69 102 1.0 3.0 0.01 0.05 0.05 93 1017.5
20240723144319 70 98 0.0 2.0 0.01 0.05 0.05 94 1017.6
20240723143832 70 131 0.0 0.0 0.01 0.05 0.05 95 1017.5
20240723143314 70 131 0.0 0.0 0.01 0.05 0.05 94 1017.6
20240723142814 70 139 0.0 1.0 0.01 0.05 0.05 94 1017.5
20240723142315 70 139 0.0 1.0 0.01 0.05 0.05 95 1017.5
20240723141812 69 139 0.0 1.0 0.01 0.05 0.05 94 1017.5
20240723141311 69 146 0.0 0.0 0.01 0.05 0.05 95 1017.4
20240723140816 69 146 0.0 0.0 0.01 0.05 0.05 95 1017.4
20240723140315 69 146 0.0 0.0 0.01 0.05 0.05 94 1017.5
20240723135816 69 146 0.0 0.0 0.01 0.05 0.05 95 1017.6
20240723135315 69 146 0.0 0.0 0.01 0.05 0.05 95 1017.5
20240723134815 69 146 0.0 0.0 0.00 0.04 0.04 96 1017.4
20240723134550 69 148 0.0 0.0 0.00 0.04 0.04 96 1017.5
20240723134101 69 148 0.0 0.0 0.00 0.04 0.04 96 1017.4
20240723133314 69 148 0.0 1.0 0.00 0.04 0.04 96 1017.5
20240723132811 69 145 0.0 1.0 0.00 0.04 0.04 96 1017.3
20240723132559 68 145 0.0 1.0 0.00 0.04 0.04 96 1017.3
20240723131811 68 146 0.0 1.0 0.00 0.04 0.04 96 1017.3
20240723131558 68 145 0.0 1.0 0.00 0.04 0.04 96 1017.3
20240723130811 68 145 0.0 1.0 0.00 0.04 0.04 96 1017.1
20240723130312 69 145 0.0 1.0 0.00 0.04 0.04 97 1017.1
20240723125815 69 146 0.0 1.0 0.00 0.04 0.04 97 1017.2
20240723125312 68 146 0.0 1.0 0.00 0.04 0.04 97 1017.0
20240723125102 68 145 0.0 1.0 0.01 0.04 0.04 96 1017.1
20240723124312 69 200 0.0 1.0 0.01 0.04 0.04 97 1017.0
20240723123811 68 244 0.0 1.0 0.01 0.04 0.04 97 1017.1
20240723123313 68 244 0.0 1.0 0.01 0.04 0.04 96 1016.9
20240723123120 69 109 0.0 1.0 0.02 0.04 0.04 97 1016.9
20240723122313 69 109 0.0 1.0 0.02 0.04 0.04 97 1016.9
20240723121812 68 109 0.0 1.0 0.02 0.04 0.04 97 1017.0
20240723121312 68 109 0.0 1.0 0.02 0.04 0.04 97 1017.0
20240723121107 68 109 0.0 1.0 0.02 0.04 0.04 96 1017.0
20240723120314 68 109 0.0 2.0 0.03 0.04 0.04 96 1017.0
20240723120109 68 108 0.0 2.0 0.03 0.04 0.04 96 1017.1
20240723115604 68 99 0.0 1.0 0.03 0.03 0.03 96 1017.1
20240723114808 68 99 0.0 1.0 0.02 0.03 0.03 96 1017.1
20240723114309 69 109 0.0 1.0 0.02 0.03 0.03 96 1017.2
20240723113809 68 105 0.0 1.0 0.02 0.03 0.03 97 1017.1
20240723113309 68 105 0.0 1.0 0.02 0.03 0.03 96 1017.1
20240723112808 68 105 0.0 1.0 0.01 0.02 0.02 96 1017.2
20240723112308 68 105 0.0 4.0 0.01 0.02 0.02 96 1017.2
20240723111808 69 77 0.0 4.0 0.01 0.02 0.02 96 1017.2
20240723111604 69 122 0.0 2.0 0.01 0.02 0.02 96 1017.2
20240723110811 69 129 0.0 2.0 0.01 0.02 0.02 97 1017.2
20240723110309 69 129 0.0 2.0 0.00 0.01 0.01 96 1017.1
20240723110107 69 123 0.0 2.0 0.00 0.01 0.01 96 1016.9
20240723105309 69 103 0.0 2.0 0.01 0.01 0.01 96 1016.9
20240723104808 69 104 0.0 1.0 0.01 0.01 0.01 96 1016.9
20240723104309 69 101 0.0 1.0 0.01 0.01 0.01 96 1016.8
20240723104108 69 101 0.0 1.0 0.01 0.01 0.01 96 1016.7
20240723103310 69 101 0.0 1.0 0.01 0.01 0.01 96 1016.5
20240723102808 70 100 0.0 1.0 0.01 0.01 0.01 96 1016.6
20240723102309 70 100 0.0 1.0 0.01 0.01 0.01 96 1016.7
20240723101806 70 100 0.0 1.0 0.01 0.01 0.01 96 1016.5
20240723101605 70 100 0.0 3.0 0.01 0.01 0.01 96 1016.5
20240723100805 70 100 0.0 3.0 0.01 0.01 0.01 96 1016.5
20240723100559 70 226 0.0 1.0 0.01 0.01 0.01 96 1016.4
20240723095809 70 226 0.0 0.0 0.01 0.01 0.01 96 1016.4
20240723095309 70 226 0.0 1.0 0.00 0.00 0.00 95 1016.5
20240723094806 70 226 0.0 1.0 0.00 0.00 0.00 95 1016.5
20240723094603 70 226 0.0 1.0 0.00 0.00 0.00 95 1016.5
20240723093803 70 226 0.0 1.0 0.00 0.00 0.00 95 1016.5
20240723093259 70 226 0.0 1.0 0.00 0.00 0.00 95 1016.5
20240723093058 70 226 0.0 1.0 0.00 0.00 0.00 95 1016.5
20240723092549 70 147 0.0 0.0 0.00 0.00 0.00 95 1016.4
20240723091756 70 245 0.0 1.0 0.00 0.00 0.00 94 1016.5
20240723091252 70 245 0.0 1.0 0.00 0.00 0.00 94 1016.5
20240723091048 70 176 0.0 5.0 0.00 0.00 0.00 94 1016.6
20240723090252 70 138 0.0 5.0 0.00 0.00 0.00 94 1016.7
20240723085749 70 248 0.0 3.0 0.00 0.00 0.00 94 1016.6
20240723085249 70 237 0.0 3.0 0.00 0.00 0.00 94 1016.7
20240723084749 70 242 0.0 1.0 0.00 0.00 0.00 94 1016.6
20240723084250 70 242 0.0 3.0 0.00 0.00 0.00 94 1016.6
20240723083746 70 242 0.0 3.0 0.00 0.00 0.00 94 1016.5
20240723083246 71 247 0.0 1.0 0.00 0.00 0.00 95 1016.5
20240723082744 71 247 0.0 1.0 0.00 0.00 0.00 95 1016.4
20240723082241 70 247 0.0 2.0 0.00 0.00 0.00 95 1016.5
20240723081742 71 249 0.0 2.0 0.00 0.00 0.00 96 1016.6
20240723081239 71 239 0.0 1.0 0.00 0.00 0.00 96 1016.5
20240723080737 71 239 0.0 1.0 0.00 0.00 0.00 96 1016.4
20240723080237 71 239 0.0 1.0 0.00 0.00 0.00 96 1016.5
20240723075736 71 239 0.0 1.0 0.00 0.00 0.00 96 1016.4
20240723075234 71 238 0.0 0.0 0.00 0.00 0.00 96 1016.5
20240723074732 71 238 0.0 0.0 0.00 0.00 0.00 96 1016.4
20240723074523 71 238 0.0 0.0 0.00 0.00 0.00 96 1016.4
20240723073729 71 238 0.0 0.0 0.00 0.00 0.00 96 1016.5
20240723073221 71 238 0.0 0.0 0.00 0.00 0.00 96 1016.4
20240723072717 71 238 0.0 0.0 0.00 0.00 0.00 96 1016.4
20240723072212 71 238 0.0 0.0 0.00 0.00 0.00 96 1016.5
20240723071956 71 238 0.0 0.0 0.00 0.00 0.00 96 1016.5
20240723071210 71 238 0.0 0.0 0.00 0.00 0.00 96 1016.5
20240723070707 71 238 0.0 0.0 0.00 0.00 0.00 96 1016.6
20240723070206 71 238 0.0 1.0 0.00 0.00 0.00 96 1016.6
20240723065706 71 238 0.0 1.0 0.00 0.00 0.00 96 1016.5
20240723065206 72 238 0.0 0.0 0.00 0.00 0.00 96 1016.6
20240723064706 72 239 0.0 0.0 0.00 0.00 0.00 95 1016.7
20240723064206 72 239 0.0 0.0 0.00 0.00 0.00 95 1016.7
20240723063703 72 239 0.0 0.0 0.00 0.00 0.00 95 1016.7
20240723063203 72 239 0.0 0.0 0.00 0.00 0.00 95 1016.7
20240723062705 72 239 0.0 0.0 0.00 0.00 0.00 95 1016.7
20240723062204 72 239 0.0 0.0 0.00 0.00 0.00 95 1016.7
20240723061946 72 239 0.0 0.0 0.00 0.00 0.00 95 1016.9
20240723061201 72 239 0.0 0.0 0.00 0.00 0.00 95 1016.9
20240723060656 72 239 0.0 0.0 0.00 0.00 0.00 95 1016.9
20240723060153 72 239 0.0 0.0 0.00 0.00 0.00 95 1016.9
20240723055653 72 239 0.0 0.0 0.00 0.00 0.00 95 1016.8
20240723055152 72 239 0.0 0.0 0.00 0.00 0.00 95 1016.7
20240723054653 73 239 0.0 0.0 0.00 0.00 0.00 95 1016.8
20240723054448 73 238 0.0 0.0 0.00 0.00 0.00 95 1016.9
20240723053651 73 239 0.0 0.0 0.00 0.00 0.00 95 1017.0
20240723053149 73 239 0.0 0.0 0.00 0.00 0.00 95 1017.0
20240723052940 73 239 0.0 0.0 0.00 0.00 0.00 95 1017.0
20240723052145 73 239 0.0 0.0 0.00 0.00 0.00 95 1017.1
20240723051645 73 239 0.0 0.0 0.00 0.00 0.00 95 1017.2
20240723051143 73 239 0.0 0.0 0.00 0.00 0.00 95 1017.3
20240723050927 73 239 0.0 0.0 0.00 0.00 0.00 95 1017.3
20240723050141 73 239 0.0 0.0 0.00 0.00 0.00 95 1017.5
20240723045641 73 238 0.0 0.0 0.00 0.00 0.00 94 1017.5
20240723045146 73 239 0.0 0.0 0.00 0.00 0.00 94 1017.6
20240723044638 73 239 0.0 0.0 0.00 0.00 0.00 94 1017.5
20240723044147 73 239 0.0 0.0 0.00 0.00 0.00 94 1017.6
20240723043634 73 239 0.0 0.0 0.00 0.00 0.00 94 1017.6
20240723043133 73 239 0.0 1.0 0.00 0.00 0.00 94 1017.7
20240723042634 73 239 0.0 1.0 0.00 0.00 0.00 94 1017.7
20240723042133 73 239 0.0 0.0 0.00 0.00 0.00 94 1017.7
20240723041633 73 239 0.0 1.0 0.00 0.00 0.00 94 1017.8
20240723041132 73 239 0.0 1.0 0.00 0.00 0.00 94 1017.8
20240723040632 73 239 0.0 0.0 0.00 0.00 0.00 94 1017.8
20240723040133 73 239 0.0 0.0 0.00 0.00 0.00 94 1017.7
20240723035633 73 239 0.0 0.0 0.00 0.00 0.00 94 1017.9
20240723035132 73 239 0.0 0.0 0.00 0.00 0.00 93 1017.8
20240723034631 73 239 0.0 0.0 0.00 0.00 0.00 93 1017.9
20240723034128 73 239 0.0 0.0 0.00 0.00 0.00 93 1018.0
20240723033626 74 239 0.0 1.0 0.00 0.00 0.00 93 1018.0
20240723033127 74 239 0.0 1.0 0.00 0.00 0.00 93 1017.9
20240723032917 74 239 0.0 1.0 0.00 0.00 0.00 92 1018.0
20240723032124 74 239 0.0 1.0 0.00 0.00 0.00 92 1018.1
20240723031918 74 239 0.0 1.0 0.00 0.00 0.00 92 1018.1
20240723031124 74 239 0.0 1.0 0.00 0.00 0.00 92 1018.1
20240723030619 74 239 0.0 1.0 0.00 0.00 0.00 92 1018.1
20240723030117 74 239 0.0 1.0 0.00 0.00 0.00 91 1018.2
20240723025618 74 239 0.0 1.0 0.00 0.00 0.00 91 1018.2
20240723025114 74 239 0.0 2.0 0.00 0.00 0.00 90 1018.2
20240723024911 74 239 0.0 2.0 0.00 0.00 0.00 90 1018.2
20240723024112 74 239 0.0 1.0 0.00 0.00 0.00 90 1018.3
20240723023612 74 239 0.0 1.0 0.00 0.00 0.00 89 1018.1
20240723023113 74 239 0.0 1.0 0.00 0.00 0.00 89 1018.2
20240723022615 74 239 0.0 2.0 0.00 0.00 0.00 89 1018.2
20240723022126 74 204 0.0 2.0 0.00 0.00 0.00 88 1018.2
20240723021620 74 238 0.0 2.0 0.00 0.00 0.00 88 1018.2
20240723021124 74 208 0.0 2.0 0.00 0.00 0.00 87 1018.1
20240723020618 74 229 0.0 2.0 0.00 0.00 0.00 87 1018.1
20240723020118 74 229 0.0 4.0 0.00 0.00 0.00 86 1018.1
20240723020102 75 237 0.0 4.0 0.00 0.00 0.00 86 1018.1
20240723015306 75 210 0.0 4.0 0.00 0.00 0.00 85 1018.1
20240723014819 75 236 1.0 4.0 0.00 0.00 0.00 84 1018.2
20240723014308 75 219 1.0 4.0 0.00 0.00 0.00 84 1018.2
20240723014110 75 227 0.0 3.0 0.00 0.00 0.00 83 1018.1
20240723013306 75 226 0.0 2.0 0.00 0.00 0.00 83 1018.1
20240723012808 75 229 0.0 2.0 0.00 0.00 0.00 82 1018.1
20240723012307 75 219 0.0 2.0 0.00 0.00 0.00 82 1018.0
20240723011806 75 233 0.0 2.0 0.00 0.00 0.00 81 1017.9
20240723011309 75 233 1.0 2.0 0.00 0.00 0.00 81 1017.9
20240723010805 75 156 1.0 3.0 0.00 0.00 0.00 81 1017.9
20240723010310 75 233 1.0 3.0 0.00 0.00 0.00 80 1017.7
20240723005807 75 236 1.0 3.0 0.00 0.00 0.00 80 1017.7
20240723005308 75 240 1.0 3.0 0.00 0.00 0.00 80 1017.6
20240723004807 75 264 1.0 5.0 0.00 0.00 0.00 79 1017.6
20240723004603 76 136 1.0 5.0 0.00 0.00 0.00 78 1017.6
20240723003808 76 137 1.0 5.0 0.00 0.00 0.00 77 1017.5
20240723003306 76 221 1.0 5.0 0.00 0.00 0.00 77 1017.5
20240723002807 76 229 1.0 5.0 0.00 0.00 0.00 76 1017.3
20240723002309 76 260 1.0 5.0 0.00 0.00 0.00 76 1017.3
20240723001809 76 238 1.0 4.0 0.00 0.00 0.00 77 1017.1
20240723001310 76 237 1.0 3.0 0.00 0.00 0.00 76 1017.2
20240723000808 76 225 1.0 3.0 0.00 0.00 0.00 76 1017.3
20240723000320 76 226 1.0 4.0 0.00 0.00 0.00 76 1017.1
20240722235807 76 233 1.0 4.0 0.00 0.00 0.00 76 1017.3
20240722235306 77 231 1.0 4.0 0.00 0.00 0.00 76 1017.3
20240722234821 77 236 2.0 4.0 0.00 0.00 0.00 76 1017.2
20240722234607 77 219 2.0 6.0 0.00 0.00 0.00 76 1017.3
20240722233806 77 259 2.0 6.0 0.00 0.00 0.00 76 1017.3
20240722233307 77 229 2.0 4.0 0.00 0.00 0.00 76 1017.3
20240722232807 77 229 2.0 4.0 0.00 0.00 0.00 76 1017.3
20240722232306 78 239 2.0 8.0 0.00 0.00 0.00 76 1017.2
20240722231806 78 223 2.0 8.0 0.00 0.00 0.00 76 1017.5
20240722231309 78 190 2.0 8.0 0.00 0.00 0.00 76 1017.3
20240722230810 78 257 2.0 8.0 0.00 0.00 0.00 76 1017.4
20240722230312 78 241 2.0 5.0 0.00 0.00 0.00 77 1017.4
20240722225809 78 244 2.0 9.0 0.00 0.00 0.00 77 1017.4
20240722225310 78 251 2.0 9.0 0.00 0.00 0.00 77 1017.3
20240722224757 78 220 2.0 7.0 0.00 0.00 0.00 77 1017.3
20240722224257 78 243 2.0 7.0 0.00 0.00 0.00 78 1017.3
20240722223756 78 205 2.0 4.0 0.00 0.00 0.00 78 1017.4
20240722223252 78 262 1.0 5.0 0.00 0.00 0.00 78 1017.3
20240722222753 78 251 2.0 5.0 0.00 0.00 0.00 78 1017.3
20240722222250 78 207 1.0 4.0 0.00 0.00 0.00 77 1017.3
20240722221748 79 240 1.0 6.0 0.00 0.00 0.00 76 1017.3
20240722221322 79 231 2.0 6.0 0.00 0.00 0.00 75 1017.4
20240722220240 79 241 2.0 7.0 0.00 0.00 0.00 74 1017.4
20240722220025 79 243 2.0 6.0 0.00 0.00 0.00 74 1017.5
20240722215240 79 236 2.0 5.0 0.00 0.00 0.00 73 1017.3
20240722214751 79 254 2.0 5.0 0.00 0.00 0.00 73 1017.2
20240722214538 80 227 2.0 5.0 0.00 0.00 0.00 73 1017.4
20240722214040 80 200 2.0 8.0 0.00 0.00 0.00 73 1017.3
20240722213245 80 213 3.0 11.0 0.00 0.00 0.00 71 1017.3
20240722212735 80 238 3.0 11.0 0.00 0.00 0.00 72 1017.3
20240722212232 80 224 2.0 6.0 0.00 0.00 0.00 75 1017.4
20240722211735 81 261 2.0 9.0 0.00 0.00 0.00 73 1017.3
20240722211515 81 253 2.0 9.0 0.00 0.00 0.00 73 1017.2
20240722210722 81 252 2.0 6.0 0.00 0.00 0.00 72 1017.3
20240722210223 81 243 2.0 5.0 0.00 0.00 0.00 71 1017.4
20240722210011 81 245 1.0 5.0 0.00 0.00 0.00 71 1017.3
20240722205220 82 229 2.0 7.0 0.00 0.00 0.00 70 1017.4
20240722204732 82 236 1.0 7.0 0.00 0.00 0.00 69 1017.2
20240722204215 82 221 1.0 3.0 0.00 0.00 0.00 69 1017.4
20240722203715 82 211 1.0 6.0 0.00 0.00 0.00 69 1017.4
20240722203214 82 233 2.0 6.0 0.00 0.00 0.00 69 1017.4
20240722202713 82 220 2.0 6.0 0.00 0.00 0.00 72 1017.4
20240722202212 82 232 1.0 5.0 0.00 0.00 0.00 69 1017.5
20240722201712 81 224 1.0 5.0 0.00 0.00 0.00 77 1017.5
20240722201453 81 167 1.0 5.0 0.00 0.00 0.00 78 1017.5
20240722200953 80 131 0.0 2.0 0.00 0.00 0.00 80 1017.6
20240722200215 80 148 1.0 2.0 0.00 0.00 0.00 81 1017.6
20240722195710 80 99 0.0 2.0 0.00 0.00 0.00 80 1017.5
20240722195210 79 144 0.0 1.0 0.00 0.00 0.00 80 1017.6
20240722194709 79 91 0.0 1.0 0.00 0.00 0.00 80 1017.7
20240722194206 79 92 0.0 1.0 0.00 0.00 0.00 81 1017.7
20240722193704 78 91 1.0 3.0 0.00 0.00 0.00 81 1017.7
20240722193205 78 91 1.0 3.0 0.00 0.00 0.00 82 1017.6
20240722192702 77 158 1.0 4.0 0.00 0.00 0.00 83 1017.8
20240722192450 78 122 1.0 4.0 0.00 0.00 0.00 81 1017.9
20240722191702 77 135 1.0 4.0 0.00 0.00 0.00 82 1017.8
20240722191207 77 140 1.0 4.0 0.00 0.00 0.00 83 1017.9
20240722190707 76 119 1.0 4.0 0.00 0.00 0.00 83 1017.8
20240722190450 76 110 1.0 4.0 0.00 0.00 0.00 83 1017.8
20240722185701 75 98 1.0 3.0 0.00 0.00 0.00 85 1018.0
20240722185203 75 117 1.0 4.0 0.00 0.00 0.00 84 1018.1
20240722184948 75 129 1.0 4.0 0.00 0.00 0.00 83 1018.1
20240722184203 75 127 0.0 3.0 0.00 0.00 0.00 83 1018.1
20240722183950 75 101 1.0 2.0 0.00 0.00 0.00 84 1018.1
20240722183203 75 136 1.0 3.0 0.00 0.00 0.00 83 1018.3
20240722182702 75 122 1.0 3.0 0.00 0.00 0.00 82 1018.3
20240722182205 76 114 2.0 6.0 0.00 0.00 0.00 82 1018.3